Regional Weather Roundup
Issued by NWS

Home | Current Version | Previous Version | Text Only | Print | Product List | Glossary Off
Versions: 1 2 3 4 5 6 7 8 9 10 11 12 13 14 15 16 17 18 19 20 21 22 23 24 25 26 27 28 29 30 31 32 33 34 35 36 37 38 39 40 41 42 43 44 45 46 47 48 49 50

000
ASUS43 KIND 290209
RWRIN

WEATHER ROUNDUP FOR INDIANA
NATIONAL WEATHER SERVICE INDIANAPOLIS IN
1000 PM EDT SUN AUG 28 2016

NOTE: "FAIR" INDICATES FEW OR NO CLOUDS BELOW 12,000 FEET WITH NO
SIGNIFICANT WEATHER AND/OR OBSTRUCTIONS TO VISIBILITY.

* - STATION DOES NOT REPORT WEATHER SUCH AS PRECIPITATION OR FOG.

+ - STATION NOT QUALITY CONTROLLED BY THE NATIONAL WEATHER SERVICE.
    USE DATA WITH CAUTION...ESPECIALLY DEWPOINT AND RELATIVE
    HUMIDITY OBSERVATIONS.

INZ001>003-010>013-019-020-290300-
NORTHWEST INDIANA

CITY           SKY/WX    TMP DP  RH WIND       PRES   REMARKS
GARY /AIRPORT/ MOCLDY    75  73  94 E5        30.19R
KNOX *+        PTCLDY    68  55  64 CALM      30.19R
LA PORTE +     PTCLDY   N/A N/A N/A CALM      30.21R
MICHIGAN CITY+ CLEAR     70  70 100 MISG      30.20R
MONTICELLO +   CLEAR     71  65  81 SE3       30.18R
RENSSELAER +   PTCLDY    72  72 100 N5        30.20R
VALPARAISO     LGT RAIN  71  70  96 CALM      30.21R

$$

LMZ046-743>745-290300-
SOUTHERN LAKE MICHIGAN

STATION/POSITION TIME  TEMP    WIND        PRES    WAVE
                       AIR SEA DIR/SP/G            HT
                 (UTC) (F)     (DEG/KT/KT) (MB)    (FT)
BURNS HARBOR     0102   74      60/ 11/ 12 1022.0S
MICHIGAN CITY    0100   74      20/ 13/ 14   N/A
5NW MICH CITY    0200   75 77   50/ 14/ 16   N/A     2

$$

INZ004-005-014>016-021>024-290300-
NORTH CENTRAL INDIANA

CITY           SKY/WX    TMP DP  RH WIND       PRES   REMARKS
GOSHEN         FOG       69  66  90 E3        30.21R VSB 1
LOGANSPORT +   CLEAR     68  68 100 E6        30.20R
PERU/GRISSOM   CLEAR     70  70  99 E5        30.19R
ROCHESTER +    CLEAR     72  72 100 CALM      30.20R
SOUTH BEND     CLEAR     73  71  93 CALM      30.20R
WARSAW +       CLEAR     68  68 100 CALM      30.21R

$$

INZ006>009-017-018-025>027-290300-
NORTHEAST INDIANA

CITY           SKY/WX    TMP DP  RH WIND       PRES   REMARKS
ANGOLA *+      CLEAR     70  61  73 S3        30.22R
AUBURN +       CLOUDY    70  66  88 CALM      30.22R
FORT WAYNE     MOCLDY    70  67  90 CALM      30.21R
HUNTINGTON +   PTCLDY    68  67  96 CALM      30.20S

$$

INZ028-029-035-036-043>045-051>053-290300-
WEST CENTRAL INDIANA

CITY           SKY/WX    TMP DP  RH WIND       PRES   REMARKS
CRAWFORDSVL +  CLEAR     72  69  92 E5        30.18R
GREENCASTLE +  CLEAR     73  73 100 CALM      30.19R
LAFAYETTE      CLEAR     71  69  93 E7        30.17R
TERRE HAUTE    CLEAR     77  73  87 N3        30.15R

$$

INZ030>032-037>040-046>048-054>057-064-065-290300-
CENTRAL INDIANA

CITY           SKY/WX    TMP DP  RH WIND       PRES   REMARKS
COLUMBUS       MOCLDY    77  73  88 SE9       30.20R
INDIANAPOLIS   PTCLDY    77  70  79 NE8       30.18R
-EAGLE CREEK   CLEAR     75  69  81 MISG      30.18R
KOKOMO *+      CLEAR     70  66  88 SE5       30.20R
MARION +       CLOUDY    70  68  94 NE5       30.21R
MT COMFORT *+  CLEAR     72  68  88 E5        30.20R
SHELBYVILLE    CLEAR     76  67  73 E8        30.20R
ZIONSVILLE +   CLEAR     72  68  87 E3        30.21R

$$

INZ033-034-041-042-049-050-058-059-290300-
EAST CENTRAL INDIANA

CITY           SKY/WX    TMP DP  RH WIND       PRES   REMARKS
MUNCIE         PTCLDY    73  70  90 S5        30.21R

$$

INZ060-061-067>069-081>083-085>088-290300-
SOUTHWEST INDIANA

CITY           SKY/WX    TMP DP  RH WIND       PRES   REMARKS
EVANSVILLE     CLEAR     81  75  82 CALM      30.13R
HUNTINGBURG *+ PTCLDY    79  70  73 E10       30.15R
WASHINGTON +   RAIN      80  72  77 MISG      30.14R

$$

INZ062-063-066-070>080-084-089>092-290300-
SOUTH CENTRAL AND SOUTHEAST INDIANA

CITY           SKY/WX    TMP DP  RH WIND       PRES   REMARKS
BLOOMINGTON    PTCLDY    79  74  84 SE8       30.18R
MADISON *+     CLOUDY    72  68  88 NE8       30.23S

$$





USA.gov is the U.S. government's official web portal to all federal, state and local government web resources and services.